Regional Weather Roundup
Issued by NWS

Home | Current Version | Previous Version | Text Only | Print | Product List | Glossary On
Versions: 1 2 3 4 5 6 7 8 9 10 11 12 13 14 15 16 17 18 19 20 21 22 23 24 25 26 27 28 29 30 31 32 33 34 35 36 37 38 39 40 41 42 43 44 45 46 47 48 49 50
000
ASUS43 KDMX 212101
RWRIA

WEATHER ROUNDUP FOR IOWA
NATIONAL WEATHER SERVICE DES MOINES IA
400 PM CDT FRI JUL 21 2017

NOTE: "FAIR" INDICATES FEW OR NO CLOUDS BELOW 12,000 FEET WITH NO
SIGNIFICANT WEATHER AND/OR OBSTRUCTIONS TO VISIBILITY.

* - THESE STATIONS ARE NOT NWS STATIONS...THUS NOT UNDER NWS
QUALITY CONTROL.  THEY ALSO DO NOT REPORT WEATHER SUCH
AS PRECIPITATION OR FOG.

IAZ001>003-012>014-020>022-031>034-043>046-212200-
   NORTHWEST IOWA

CITY           SKY/WX    TMP DP  RH WIND       PRES   REMARKS
CARROLL *        N/A     81  77  89 E8G15     29.83R HX  88
CHEROKEE *     CLOUDY    81  77  86 E10       29.82S HX  88
DENISON *      CLOUDY    86  81  84 NE8       29.83R HX 102
ORANGE CITY *  PTSUNNY   82  75  78 E8        29.82S HX  89
SHELDON *      CLOUDY    82  73  74 E12G18    29.82S HX  88
SIOUX CITY     MOSUNNY   88  77  69 SE10      29.77F HX 100
SPENCER        CLOUDY    79  73  82 SE12      29.85F HX  82
STORM LAKE *   CLOUDY    75  75 100 E10       29.83F FOG
$$

IAZ055>058-069>071-079>083-090>094-212200-
   SOUTHWEST IOWA

CITY           SKY/WX    TMP DP  RH WIND       PRES   REMARKS
ATLANTIC *     SUNNY     95  77  55 S13G24    29.78S HX 109
AUDUBON *      CLOUDY    91  81  70 SW5       29.81F HX 110
CLARINDA *     SUNNY     93  81  66 S14G22    29.81F HX 113
COUNCIL BLFS * SUNNY     97  77  52 S8G16     29.78R HX 112
CRESTON *      SUNNY     95  75  52 S21       29.83S HX 107
HARLAN  *      CLOUDY    93  77  59 S12G18    29.82S HX 107
LAMONI         SUNNY     94  76  55 S14G25    29.84F HX 106
RED OAK *      SUNNY     95  79  59 S16       29.77F HX 112
SHENANDOAH *   SUNNY     95  81  63 S10G18    29.78S HX 115
$$

IAZ047>049-059>061-072>074-084-212200-
   CENTRAL IOWA

CITY           SKY/WX    TMP DP  RH WIND       PRES   REMARKS
AMES           LGT RAIN  81  77  88 E10       29.82F HX  88
ANKENY *       CLOUDY    95  77  55 NE12G18   29.81R HX 109
BOONE *        DRIZZLE   79  75  89 NE7       29.83F HX  82
CHARITON *     SUNNY     97  73  46 S20G26    29.82S HX 107
DES MOINES     PTSUNNY  100  70  37 S15G23    29.78S HX 107
GRINNELL*      MOSUNNY   87  80  79 E10       29.84S HX 101
KNOXVILLE *    SUNNY     97  73  46 S17G24    29.80R HX 107
MARSHALLTOWN   LGT RAIN  79  74  84 E8        29.85S HX  82
NEWTON *       CLOUDY    91  81  70 E12       29.82S HX 110
PELLA *        SUNNY     98  73  44 S10G16    29.81S HX 108
$$

IAZ004>006-015-016-023>025-035-036-212200-
   NORTH CENTRAL IOWA

CITY           SKY/WX    TMP DP  RH WIND       PRES   REMARKS
ALGONA *       DRIZZLE   73  73 100 VRB6      29.86S
CLARION *      CLOUDY    77  73  88 E8G16     29.86
ESTHERVILLE    CLOUDY    76  70  82 E12       29.87S
FORT DODGE *   CLOUDY    73  72  94 SE8       29.83F
MASON CITY     CLOUDY    71  67  87 SE9       29.91R
FOREST CITY *    N/A     73  68  83 SE9       29.89R
WEBSTER CITY * LGT RAIN  75  73  94 SE14      29.81F
IOWA FALLS *     N/A     78  72  82 E8        29.86F HX  80
$$

IAZ007>011-017>019-026>030-037>042-050>054-066-212200-
   NORTHEAST IOWA

CITY           SKY/WX    TMP DP  RH WIND       PRES   REMARKS
CEDAR RAPIDS   SUNNY     87  82  85 E10       29.83F HX 106
CHARLES CITY * PTSUNNY   72  72 100 SE8       29.88S
CLINTON *      MOSUNNY   85  77  77 E12       29.87F HX  95
DECORAH *      CLOUDY    70  68  94 SE6G12    29.89F
DUBUQUE        CLOUDY    78  71  79 E9        29.90F HX  80
MONTICELLO *   CLOUDY    82  75  78 E9        29.86F HX  89
OELWEIN *      LGT RAIN  70  70 100 E12       29.89F
WATERLOO       CLOUDY    76  70  82 E13       29.86F
$$

IAZ064-065-067-068-078-212200-
   EAST CENTRAL IOWA

CITY           SKY/WX    TMP DP  RH WIND       PRES   REMARKS
DAVENPORT      MOSUNNY   90  79  70 VRB7      29.87F HX 106
IOWA CITY      CLOUDY    91  80  70 E8        29.83F HX 109
MUSCATINE *    SUNNY     95  79  59 S14G20    29.82F HX 112
QUAD CITIES    SUNNY     93  78  61 S12G20    29.83F HX 108
$$

IAZ062-063-075>077-085>089-095>099-212200-
   SOUTHEAST IOWA

CITY           SKY/WX    TMP DP  RH WIND       PRES   REMARKS
BURLINGTON     SUNNY     94  77  57 S16       29.85F HX 108
FAIRFIELD *    SUNNY     97  72  44 S15G25    29.81F HX 105
FORT MADISON * SUNNY     93  79  62 S14       29.86F HX 110
KEOKUK *       SUNNY     97  75  49 S14G20    29.85F HX 109
OSKALOOSA *      N/A     97  74  47 S14       29.82R HX 108
OTTUMWA        SUNNY     98  72  42 S14G23    29.81F HX 107
WASHINGTON *   SUNNY     93  79  62 S12G22    29.82F HX 110
$$

ABBREVIATIONS USED IN REMARKS
   TC - TEMPERATURES IN CELSIUS
  WCI - WIND CHILL INDEX
   HX - HEAT INDEX
  VSB - VISIBILITY
$$




USA.gov is the U.S. government's official web portal to all federal, state and local government web resources and services.